Location: Buena Vista
(37.7110°N, 119.7938°W)
Time: 21:43:33
(UTC+00:00)

SEEDS - Pass Details

Date: 13 October 2024
Orbit: 532 x 540 km, 97.7° (Epoch: 11 November)

Event Time Altitude Azimuth Distance (km) Brightness Sun altitude
Rises 12:20:39 0° 5° (N) 2,722 ? -21.6°
Reaches altitude 10° 12:22:50 10° 0° (N) 1,821 ? -21.2°
Enters shadow 12:25:37 38° 331° (NNW) 845 ? -20.7°
